User: anonymous   Login
Location: Brede
(50.9167°N, 0.6000°E)
Time: 14:04:47
(UTC+00:00)
Language:

IRAS Rocket - Orbit

View from above orbital plane
View from above orbital plane
View from above satellite
View from above satellite

Ground track
Ground track

The orbit data is extracted from the following two-line orbital elements,

1 13778U 83004B   20294.63227529 -.00000075 +00000-0 -12181-4 0  9995
2 13778 100.0662 073.8382 0021692 115.3881 244.9533 14.09030977939035
Epoch (UTC): 20 October 2020 15:10:28
Eccentricity: 0.0021692
inclination: 100.0662°
perigee height: 847 km
apogee height: 878 km
right ascension of ascending node: 73.8382°
argument of perigee: 115.3881°
revolutions per day: 14.09030977
mean anomaly at epoch: 244.9533°
orbit number at epoch: 93903

The dashed part of the orbit path shows where the satellite is in the earth's shadow,  

DLR